Rechercher aéroport 
image banner adimage banner adimage banner ad
image banner ad

3O1 - Gustine

Situé à Gustine, United States

ICAO - 3O1, IATA -

Données fournies par Airmate  

Information générale

Coordonnées: N37°15'38" W120°57'51"
Élévation : 79 feet MSL.
Variation magnétique : 16° East
Voir autres Aéroports à California

Données opérationnelles

Special qualification required
Heure actuelle UTC:
Heure actuelle locale:
Météo à : KMER - Castle ( 37 km )
METAR: KMER 210255Z AUTO 32004KT 10SM CLR 22/09 A2995 RMK AO1
TAF: KMER 202320Z 2100/2124 VRB04KT P6SM SKC
Voir NOTAMs / SUP AIP / TFR affectant cet aéroport [VIEW]
Fréquences de communication: [VIEW]

Pistes:

Identifiant RWYQFULongueur (ft)Largeur (ft)SurfaceLDA (ft)
18196°320760ASPH
3616°320760ASPH

Coordonnées de l'aéroport

Adresse: Gustine United States

Vue satellite de 3O1